Regional Weather Roundup
Issued by NWS

Home | Current Version | Previous Version | Graphics & Text | Print | Product List | Glossary On
Versions: 1 2 3 4 5 6 7 8 9 10 11 12 13 14 15 16 17 18 19 20 21 22 23 24 25 26 27 28 29 30 31 32 33 34 35 36 37 38 39 40 41 42 43 44 45 46 47 48 49 50
871
ASUS45 KPSR 301610
RWRAZ

ARIZONA HOURLY REGIONAL WEATHER ROUNDUP
NATIONAL WEATHER SERVICE PHOENIX AZ
900 AM MST MON MAY 30 2016

NOTE: FAIR INDICATES FEW OR NO CLOUDS BELOW 12,000 FEET WITH NO
SIGNIFICANT WEATHER AND/OR OBSTRUCTIONS TO VISIBILITY.

AZZ001>003-036-301700-
NORTHWEST ARIZONA

CITY           SKY/WX    TMP DP  RH WIND       PRES   REMARKS
BULLHEAD CITY  MOSUNNY   77  27  15 MISG      29.89
KINGMAN        SUNNY     78  21  12 VRB6      30.02R
$$

AZZ004>008-015-016-018-301700-
NORTH CENTRAL ARIZONA

CITY           SKY/WX    TMP DP  RH WIND       PRES   REMARKS
GRAND CANYON   SUNNY     68  15  13 VRB6      30.17F
WILLIAMS       SUNNY     66  18  15 VRB5G12   30.25S
PRESCOTT       SUNNY     71  23  16 S6G20     30.09F
FLAGSTAFF      SUNNY     62  23  22 VRB7      30.20S
PAYSON         SUNNY     72  32  23 S8G17     30.13S
PAGE           SUNNY     73  31  21 N7        30.04S
$$

AZZ009>014-017-301700-
NORTHEAST ARIZONA

CITY           SKY/WX    TMP DP  RH WIND       PRES   REMARKS
WINSLOW        SUNNY     69  22  16 E7        30.11F
SAINT JOHNS    SUNNY     70  20  15 VRB3      30.13F
WINDOW ROCK    SUNNY     68  19  15 S6        30.19F
SHOW LOW       MOSUNNY   66  28  24 SW12      30.18F
$$

AZZ023-301700-
GREATER PHOENIX AREA

CITY           SKY/WX    TMP DP  RH WIND       PRES   REMARKS
PHOENIX        MOSUNNY   80  18  10 CALM      29.91S
BUCKEYE        SUNNY     77  23  13 S5        29.94S
GLENDALE       SUNNY     81  10   7 CALM      29.94S
LUKE AFB       SUNNY     80  13   8 W1        29.91S
DEER VALLEY    SUNNY     79  14   8 SE6       29.93S
SCOTTSDALE     SUNNY     78  15   9 CALM      29.95R
MESA-FALCON    SUNNY    N/A N/A N/A S6        29.91S
CHANDLER       SUNNY     79  19  11 SW6       29.93S
$$

AZZ027-028-301700-
SOUTHWEST MARICOPA COUNTY AND PINAL COUNTY

CITY           SKY/WX    TMP DP  RH WIND       PRES   REMARKS
CASA GRANDE    SUNNY     79  27  14 SW7       29.95S
GILA BEND      FAIR      80  28  14 VRB3      29.91R
$$

AZZ503-504-507>509-301700-
SOUTHEAST ARIZONA

CITY           SKY/WX    TMP DP  RH WIND       PRES   REMARKS
TUCSON         SUNNY     81  37  20 CALM      30.00S
DAVIS-MONTHAN  SUNNY     79  38  22 W5        29.98F
NOGALES        SUNNY     77  42  28 VRB5      30.04F
SIERRA VISTA   PTSUNNY   73  49  43 VRB6      30.09F
DOUGLAS        MOSUNNY   77  49  37 S9        30.06F
SAFFORD        SUNNY     80  19  10 VRB5      29.99F
$$

AZZ020-021-025-026-031-301700-
SOUTHWEST ARIZONA

CITY           SKY/WX    TMP DP  RH WIND       PRES   REMARKS
YUMA           SUNNY     79  49  34 S9        29.89R
$$

CAZ031-033-041-043-047-048-061-301700-
SOUTHERN CALIFORNIA

CITY           SKY/WX    TMP DP  RH WIND       PRES   REMARKS
DOWNTOWN L.A.  CLOUDY    63  54  72 CALM      30.01S
L.A. AIRPORT   CLOUDY    63  54  72 CALM      30.02R
SAN DIEGO      LGT RAIN  63  58  83 S3        30.03S
BURBANK        MOSUNNY   60  53  77 CALM      30.01S
ONTARIO        CLOUDY    61  51  70 CALM      30.01R
RIVERSIDE      CLOUDY    62  52  69 CALM      30.02R
PALM SPRINGS   SUNNY     76  51  41 SW5       29.90S
EL CENTRO NAS  SUNNY     79  50  36 N6        29.89S
IMPERIAL       SUNNY     77  54  44 CALM      29.87S
BLYTHE         SUNNY     79  47  32 VRB5      29.88S
NEEDLES        SUNNY     84  28  13 CALM      29.89S
$$

NVZ020-UTZ003-301700-
SOUTHERN NEVADA-UTAH

CITY           SKY/WX    TMP DP  RH WIND       PRES   REMARKS
LAS VEGAS      MOSUNNY   82  23  11 CALM      29.91R
SALT LAKE CITY MOSUNNY   68  42  38 VRB5      30.11R
$$

NMZ009-TXZ055-301700-
NEW MEXICO-WEST TEXAS

CITY           SKY/WX    TMP DP  RH WIND       PRES   REMARKS
ALBUQUERQUE    PTSUNNY   68  40  35 W5        30.14F
EL PASO        NOT AVBL
$$


........................KEY........................
SKY/WX - SKY CONDITION/WEATHER
TMP    - TEMPERATURE IN FAHRENHEIT
DP     - DEW POINT IN FAHRENHEIT
RH     - RELATIVE HUMIDITY IN PERCENT
WIND   - DIRECTION AND SPEED IN MILES PER HOUR (MPH)
VRB    - VARIABLE WIND DIRECTION
PRES   - MEAN SEA LEVEL PRESSURE IN INCHES OF MERCURY
         F - FALLING PRESSURE   R - RISING PRESSURE
         S - STEADY PRESSURE
VSB    - VISIBILITY IN MILES
HX     - HEAT INDEX IN FAHRENHEIT
WCI    - WIND CHILL INDEX IN FAHRENHEIT
TC     - TEMPERATURE IN CELSIUS WHICH IS ALSO KNOWN AS
         TEMPERATURE IN CENTIGRADE
AFB    - AIR FORCE BASE
         LUKE AFB IS LUKE AIR FORCE BASE
         DAVIS-MONTHAN IS DAVIS-MONTHAN AIR FORCE BASE
NAS    - NAVAL AIR STATION
         EL CENTRO NAS IS EL CENTRO NAVAL AIR STATION
N/A    - NOT AVAILABLE





USA.gov is the U.S. government's official web portal to all federal, state and local government web resources and services.